This is the latest recevied weather packets stored in our database for station/object KA3ZXO. If no packets are shown the sender has not sent any weather packets the latest 10 day(s).
| Time | Temp. | Humidity | Pressure | Rain* | Wind** | Luminosity | Snow |
|---|---|---|---|---|---|---|---|
| 1777824720 | 12.22° C | 38% | 1017.1 hPa | 0 mm | - | 45 W/m² | - |
| 1777824119 | 12.22° C | 40% | 1016.8 hPa | 0 mm | - | 31 W/m² | - |
| 1777823513 | 11.67° C | 38% | 1016.8 hPa | 0 mm | - | 48 W/m² | - |
| 1777822914 | 11.11° C | 42% | 1016.9 hPa | 0 mm | - | 33 W/m² | - |
| 1777822309 | 11.11° C | 39% | 1017.1 hPa | 0 mm | - | 28 W/m² | - |
| 1777821704 | 11.11° C | 41% | 1017.1 hPa | 0 mm | - | 27 W/m² | - |
| 1777821103 | 11.11° C | 40% | 1017 hPa | 0 mm | - | 30 W/m² | - |
| 1777820502 | 10.56° C | 41% | 1016.9 hPa | 0 mm | - | 52 W/m² | - |
| 1777819903 | 10.56° C | 41% | 1016.8 hPa | 0 mm | - | 37 W/m² | - |
| 1777819298 | 10.56° C | 42% | 1016.8 hPa | 0 mm | - | 62 W/m² | - |
| 1777818697 | 10° C | 43% | 1017 hPa | 0 mm | - | 62 W/m² | - |
| 1777818096 | 10° C | 42% | 1017.1 hPa | 0 mm | - | 26 W/m² | - |
| 1777817496 | 10° C | 43% | 1017 hPa | 0 mm | - | 28 W/m² | - |
| 1777816895 | 10° C | 47% | 1016.8 hPa | 0 mm | - | 27 W/m² | - |
| 1777816294 | 10° C | 46% | 1016.8 hPa | 0 mm | - | 33 W/m² | - |
| 1777815689 | 9.44° C | 46% | 1017.1 hPa | 0 mm | - | 46 W/m² | - |
| 1777815089 | 9.44° C | 49% | 1016.9 hPa | 0 mm | - | 36 W/m² | - |
| 1777814488 | 9.44° C | 51% | 1016.9 hPa | 0 mm | - | 23 W/m² | - |
| 1777813888 | 8.89° C | 50% | 1017.1 hPa | 0 mm | - | 21 W/m² | - |
| 1777813283 | 8.89° C | 50% | 1017 hPa | 0 mm | - | 21 W/m² | - |
| 1777812678 | 8.89° C | 53% | 1017 hPa | 0 mm | - | 18 W/m² | - |
| 1777812073 | 8.33° C | 55% | 1016.8 hPa | 0 mm | - | 17 W/m² | - |
| 1777811473 | 8.33° C | 57% | 1016.9 hPa | 0 mm | - | 16 W/m² | - |
| 1777810873 | 7.78° C | 58% | 1016.7 hPa | 0 mm | - | 16 W/m² | - |
| 1777810272 | 7.78° C | 58% | 1016.6 hPa | 0 mm | - | 15 W/m² | - |
* Rain latest hour (hover to see other rain measurements)
** Current wind speed in m/s (hover to see current wind gust speed)